This demonstration page uses our WeatherBlox Daily Observations layout. Learn more.

Left ArrowRight Arrow

Hourly Observations for May 5, 2015

Temp ( °F °C ) Dew Point ( °F °C ) Humidity (%) Winds ( mph kmh ) Pressure ( in mb ) Visibility ( mi km ) Precip ( " mm )
12:25 am 00:25 Mostly Cloudy 61 16 59 15 94 94 E 2 4 30.09 1019 9 14 0.00 0.00
12:30 am 00:30 Mostly Cloudy 61 16 59 15 94 94 Calm 30.09 1019 9 14 0.00 0.00
12:42 am 00:42 Mostly Cloudy 61 16 59 15 94 94 Calm 30.09 1019 9 14 0.00 0.00
12:45 am 00:45 Mostly Cloudy 61 16 59 15 94 94 ESE 1 2 30.09 1019 8 13 0.00 0.00
12:46 am 00:46 Mostly Cloudy 61 16 59 15 94 94 E 2 4 30.09 1019 8 13 0.00 0.00
12:54 am 00:54 Cloudy 61 16 59 15 94 94 E 3 6 30.06 1018 8 13 0.00 0.00
12:58 am 00:58 Cloudy 60 15.7 59 14.9 95 95 ESE 2 4 30.07 1018 8 13 0.00 0.00
1:05 am 01:05 Cloudy 61 16 59 15 94 94 ESE 3 6 30.06 1018 8 13 0.00 0.00
1:06 am 01:06 Cloudy 61 16 59 15 94 94 ESE 3 6 30.06 1018 8 13 0.00 0.00
1:08 am 01:08 Cloudy 61 16 59 15 94 94 ESE 2 4 30.06 1018 8 13 0.00 0.00
1:11 am 01:11 Mostly Cloudy 61 16 59 15 94 94 SE 3 6 30.06 1018 8 13 0.00 0.00
1:18 am 01:18 Cloudy 61 16 59 15 94 94 SE 5 7 30.06 1018 8 13 0.00 0.00
1:26 am 01:26 Mostly Cloudy 61 16 59 15 94 94 SSE 8 13 30.06 1018 9 14 0.00 0.00
1:42 am 01:42 Mostly Cloudy 63 17 59 15 88 88 S 7 11 30.03 1017 9 14 0.00 0.00
1:58 am 01:58 Mostly Cloudy 62 16.8 59 15.2 90 90 S 6 9 30.05 1018 10 16 0.00 0.00
2:27 am 02:27 Cloudy 63 17 59 15 88 88 Calm 30.00 1016 10 16 0.00 0.00
2:31 am 02:31 Cloudy 63 17 59 15 88 88 S 3 6 30.00 1016 10 16 0.00 0.00
2:38 am 02:38 Cloudy 63 17 59 15 88 88 W 2 4 30.00 1016 10 16 0.00 0.00
2:39 am 02:39 Cloudy 63 17 59 15 88 88 WSW 2 4 30.00 1016 10 16 0.00 0.00
2:53 am 02:53 Cloudy 61 16 59 15 94 94 SW 1 2 30.00 1016 10 16 0.00 0.00
2:58 am 02:58 Cloudy 62 16.4 59 15 91 91 Calm 30.03 1017 10 16 0.00 0.00
3:08 am 03:08 Cloudy 61 16 59 15 94 94 WNW 2 4 30.00 1016 10 16 0.00 0.00
3:10 am 03:10 Cloudy 61 16 59 15 94 94 WNW 3 6 30.00 1016 10 16 0.00 0.00
3:18 am 03:18 Cloudy 61 16 59 15 94 94 NW 5 7 30.00 1016 10 16 0.00 0.00
3:27 am 03:27 Mostly Cloudy 61 16 59 15 94 94 NW 3 6 30.00 1016 10 16 0.00 0.00
3:34 am 03:34 Cloudy 61 16 59 15 94 94 NNW 3 6 30.00 1016 10 16 0.00 0.00
3:58 am 03:58 Cloudy 61 15.9 59 14.9 94 94 N 2 4 30.03 1017 10 16 0.00 0.00
4:20 am 04:20 Cloudy 61 16 59 15 94 94 N 3 6 30.00 1016 10 16 0.00 0.00
4:32 am 04:32 Cloudy 59 15 59 15 100 100 ENE 2 4 30.03 1017 10 16 0.00 0.00
4:58 am 04:58 Cloudy 60 15.8 59 15 95 95 E 3 6 30.04 1017 10 16 0.00 0.00
5:58 am 05:58 Cloudy with Mist and Fog 60 15.8 59 15.1 96 96 E 3 6 30.06 1018 6 10 0.00 0.00
6:21 am 06:21 Mostly Cloudy 61 16 59 15 94 94 ESE 5 7 30.06 1018 10 16 0.00 0.00
6:37 am 06:37 Cloudy 61 16 59 15 94 94 ESE 5 7 30.06 1018 10 16 0.00 0.00
6:45 am 06:45 Cloudy 61 16 59 15 94 94 ESE 6 9 30.06 1018 10 16 0.00 0.00
6:58 am 06:58 Cloudy 60 15.5 59 14.9 96 96 ESE 6 9 30.06 1018 10 16 0.00 0.00
7:35 am 07:35 Cloudy 61 16 59 15 94 94 SE 8 13 30.06 1018 10 16 0.00 0.00
7:58 am 07:58 Cloudy 62 16.6 60 15.4 93 93 ESE 7 11 30.08 1019 10 16 0.00 0.00
8:18 am 08:18 Mostly Cloudy 63 17 61 16 94 94 SE 7 11 30.06 1018 10 16 0.00 0.00
8:58 am 08:58 Mostly Sunny 65 18.4 61 15.9 85 85 SE 8 13 30.08 1019 10 16 0.00 0.00
9:58 am 09:58 Cloudy 65 18.5 61 16.1 86 86 ESE 8 13 30.09 1019 10 16 0.00 0.00
10:58 am 10:58 Partly Cloudy 68 19.9 61 15.9 78 78 SE 10 17 30.08 1019 10 16 0.00 0.00
11:58 am 11:58 Mostly Sunny 69 20.8 61 16.3 76 76 ESE 13 20 30.08 1019 10 16 0.00 0.00
12:58 pm 12:58 Partly Cloudy 73 22.7 63 17.2 71 71 SE 14 22 30.07 1018 10 16 0.00 0.00
1:58 pm 13:58 Partly Cloudy 74 23.2 62 16.7 67 67 SE 10 17 30.05 1018 10 16 0.00 0.00
2:58 pm 14:58 Mostly Sunny 74 23.5 62 16.8 66 66 SSE 9 15 30.04 1017 10 16 0.00 0.00
3:58 pm 15:58 Mostly Sunny 76 24.5 61 16.2 60 60 SSE 13 20 30.01 1016 10 16 0.00 0.00
4:58 pm 16:58 Mostly Sunny 76 24.7 60 15.8 58 58 SE 15 24 29.98 1015 10 16 0.00 0.00
5:58 pm 17:58 Sunny 75 24 59 15 57 57 SE 12 19 29.98 1015 10 16 0.00 0.00
6:58 pm 18:58 Sunny 74 23.4 59 14.9 59 59 SE 13 20 29.96 1014 10 16 0.00 0.00
7:58 pm 19:58 Sunny 71 21.6 60 15.4 68 68 ESE 9 15 29.96 1015 10 16 0.00 0.00
8:58 pm 20:58 Mostly Clear 70 20.9 59 15.2 70 70 ESE 9 15 29.97 1015 10 16 0.00 0.00
9:58 pm 21:58 Clear 71 21.7 58 14.7 65 65 ESE 16 26 29.96 1015 10 16 0.00 0.00
10:58 pm 22:58 Mostly Clear 69 20.8 57 13.9 65 65 SE 14 22 29.96 1015 10 16 0.00 0.00
11:58 pm 23:58 Partly Cloudy 67 19.4 57 13.9 71 71 SE 13 20 29.97 1015 10 16 0.00 0.00

Powered by AerisWeather